Regional Weather Roundup
Issued by NWS

Home | Current Version | Previous Version | Graphics & Text | Print | Product List | Glossary On
Versions: 1 2 3 4 5 6 7 8 9 10 11 12 13 14 15 16 17 18 19 20 21 22 23 24 25 26 27 28 29 30 31 32 33 34 35 36 37 38 39 40 41 42 43 44 45 46 47 48 49 50
000
ASUS45 KTFX 271919
RWRMT
MONTANA HOURLY WEATHER ROUNDUP
NATIONAL WEATHER SERVICE GREAT FALLS MT
1219 PM MST FRI FEB 27 2015

NOTE: "FAIR" INDICATES FEW OR NO CLOUDS BELOW 12000 FEET WITH NO
SIGNIFICANT WEATHER AND/OR OBSTRUCTIONS TO VISIBILITY.

* THESE STATIONS ARE NOT UNDER NWS QUALITY CONTROL. THEY DO NOT
   REPORT WEATHER SUCH AS PRECIPITATION OR FOG.

MTZ001>007-043-272000-
WEST OF THE DIVIDE
CITY           SKY/WX    TMP DP  RH WIND       PRES   REMARKS
KALISPELL      CLOUDY    34  10  37 NE17G26   29.92R WCI  23
MISSOULA       PTSUNNY   34  14  44 E12       29.89F WCI  25
BUTTE          PTSUNNY   27  10  49 CALM      29.80F
MULLAN PASS    SUNNY     25  16  69 SE9G21    29.73F WCI  16
* ANACONDA     PTCLDY    25  12  58 N7         N/A   WCI  17
* ESSEX        N/A       26   9  48 NE11G17    N/A   WCI  16
* EUREKA APT   CLOUDY    36  16  44 SW3       29.97R
* HAMILTON APT PTCLDY    32  16  52 E5        29.84F WCI  27
* LIBBY APT    PTCLDY    36  23  59 CALM      29.93F
* LINCOLN      N/A       24   8  50 NE16G21    N/A   WCI  11
* LOOKOUT PASS N/A       31  18  59 S6G12      N/A   WCI  25
* POLSON       N/A       34  14  44 N4         N/A
* RONAN APT    PTSUNNY   36  21  54 N/A        N/A
* SEELEY LAKE  N/A       29  10  45 S3         N/A
* THOMP F APT  PTCLDY    24  16  71 SW4        N/A
$$

MTZ008-052>055-272000-
SOUTHWEST MONTANA
CITY           SKY/WX    TMP DP  RH WIND       PRES   REMARKS
BOZEMAN        SUNNY     23  10  57 CALM      29.90F
DILLON         PTSUNNY   25  10  53 CALM      29.81F
* W YELLOWSTON SUNNY     22   5  48 W2         N/A
* THREE FORKS  PTCLDY    21  10  62 N/A        N/A
* TWIN BRIDGES PTCLDY    23   9  55 N/A        N/A
* BOULDER HILL N/A       12   5  73 N20        N/A   WCI  -6
* MONIDA PASS  N/A       22  13  68 E4         N/A
* RAYNOLDS PAS N/A       17   7  65 S4G11      N/A
* WHITEHALL    N/A       24  10  55 E3         N/A
* WISE RIVER   N/A       24  10  55 NE4G76     N/A
$$

MTZ009>010-012-014-046-048-049-054-272000-
EAST SLOPES AND CENTRAL MONTANA
CITY           SKY/WX    TMP DP  RH WIND       PRES   REMARKS
CUT BANK       LGT SNOW  16   9  74 N18       30.02R
GREAT FALLS    LGT SNOW  16  10  77 NW10      30.01R VSB 3    WCI   4
HELENA         CLOUDY    21   9  60 CALM      29.97F
MALMSTROM AFB  LGT SNOW  14  10  84 NW3       30.04R
* CONRAD       PTSUNNY   18  10  71 W14G20     N/A   WCI   4
* DEARBORN     N/A       19  10  68 NE1        N/A
* EAST GLACIER N/A       14   6  70 NE21G28    N/A   WCI  -4
* MONARCH      N/A       12   4  70 NW12       N/A   WCI  -2
* PENDROY      N/A       15  11  84 VRB23G30    N/A   WCI  -3
* ROGERS PASS  N/A       16   7  67 S4G12      N/A
* SWEET GRASS  N/A       13   9  84 N20        N/A   WCI  -5
* WHITE SULPH  N/A       15   3  59 SW4        N/A
$$

MTZ011-013-016-021-035-040-045-047-050-051-272000-
NORTH CENTRAL MONTANA
CITY           SKY/WX    TMP DP  RH WIND       PRES   REMARKS
HAVRE          PTCLDY    18   7  62 W9        30.07S WCI   7
LEWISTOWN      PTCLDY    16   7  67 W9        29.94R WCI   5
* N BAR RANCH  SUNNY     19   3  49 E7        29.89R WCI  10
* CHINOOK      SUNNY     18   3  52 W9        30.08F WCI   7
* FORT BENTON  PTCLDY    16   7  67 W12       30.08F WCI   3
* CHESTER      N/A       20   9  62 S3         N/A
* DENTON       N/A       12   2  64 W8         N/A
* GEYSER       N/A       14   7  73 W20G26     N/A   WCI  -4
* JUDITH GAP   N/A       15   7  70 VRB17      N/A   WCI  -1
* LOMA         N/A       15   7  70 SW8G13     N/A   WCI   4
$$

MTZ017>020-022>027-061-062-272000-
NORTHEAST MONTANA
CITY           SKY/WX    TMP DP  RH WIND       PRES   REMARKS
GLASGOW        PTCLDY    16   1  51 SE9       30.06F WCI   5
GLENDIVE       SUNNY     25   7  46 S15G25    30.07F WCI  13
JORDAN         PTCLDY    19   7  59 SW8       30.02F WCI   9
SIDNEY         SUNNY     25   1  35 S12G20    30.14F WCI  14
WOLF POINT     PTCLDY    21   7  55 S8        30.10F WCI  11
* BEAVER HILL  N/A       22   5  48 SE18G24    N/A   WCI   8
* CIRCLE       N/A       21  10  62 S9G14      N/A   WCI  11
* NAVAJO       N/A       15   2  56 SW9        N/A   WCI   3
* PLENTYWOOD A SUNNY     16   1  51 S7        30.11F WCI   6
* POPLAR APT   SUNNY     21   5  50 S12       30.11F WCI   9
* SACO         N/A       15   1  54 N/A        N/A
* SCOBEY APT   PTCLDY    16   1  51 SE8        N/A   WCI   5
$$

MTZ028>042-056>058-272000-
SOUTHCENTRAL AND SOUTHEAST MONTANA
CITY           SKY/WX    TMP DP  RH WIND       PRES   REMARKS
BAKER          SUNNY     19   7  59 S15       30.08F WCI   5
BILLINGS       PTSUNNY   19   9  65 CALM      29.94F
LIVINGSTON     PTCLDY    21   9  60 NW9       29.86F WCI  11
MILES CITY     SUNNY     19   9  65 S8        30.05F WCI   9
* BIG TIMBER A PTCLDY    19   9  65 W9        29.88F WCI   8
* FORSYTH APT  SUNNY     19   9  65 CALM      30.02F
* LAUREL APT   SUNNY     19   3  49 N/A        N/A
* ROUNDUP APT  SUNNY     21   5  50 N/A        N/A
* ALZADA       N/A       16   5  62 E7         N/A   WCI   6
* HYSHAM       N/A       24   3  40 S2         N/A
* LAME DEER    N/A       13   7  77 S9         N/A   WCI   1
* REED POINT   N/A       21   9  60 W4         N/A
$$

REGIONAL REPORTS...DAKOTAS
CITY           SKY/WX    TMP DP  RH WIND       PRES   REMARKS
WILLISTON      SUNNY     18   3  52 SE10      30.16F WCI   6
DICKINSON      SUNNY     21   5  50 S17       30.13F WCI   7
BEACH          SUNNY     21   3  45 S16G24    30.09F WCI   7
CROSBY         SUNNY     14   1  56 S12       30.17F
TIOGA          SUNNY     12   1  61 S13       30.18F WCI  -3
WATFORD CITY   SUNNY     18   3  52 S14       30.14F WCI   4
BISMARCK       SUNNY     18   0  45 S12       30.32F WCI   5
GRAND FORKS    SUNNY     16   1  51 SW9       30.42F WCI   5
FARGO          SUNNY     12   1  61 SW12      30.47F WCI  -2
BUFFALO SD     SUNNY     21   9  60 S17G24    30.01F WCI   7
RAPID CITY     SUNNY     19   9  65 S23       30.11F WCI   2
$$

REGIONAL REPORTS...WYOMING/IDAHO/WASHINGTON
CITY           SKY/WX    TMP DP  RH WIND       PRES   REMARKS
GILLETTE       SUNNY     16   9  74 S25       29.93F WCI  -3
SHERIDAN       SUNNY      9   1  70 CALM      29.93F
CODY           PTCLDY    16   7  67 E3        29.85F
YELLOWSTONE LA PTCLDY    12   3  67 E3        29.75F
SALMON         PTSUNNY   30  23  75 CALM      29.79F
MULLAN PASS    SUNNY     25  16  69 SE9G21    29.73S WCI  16
SAND POINT     SUNNY     45  25  45 NE17G23   29.86S
SPOKANE        PTCLDY    43  28  56 NE13      29.80F
$$

REGIONAL REPORTS...ALBERTA
CITY           SKY/WX    TMP DP  RH WIND       PRES   REMARKS
CALGARY        CLOUDY    18   9  68 N17       30.09R WCI   3
LETHBRIDGE     LGT SNOW  18  12  77 NW16      30.10R WCI   3
MEDICINE HAT   PTSUNNY   14   7  73 W7        30.12R WCI   4
EDMONTON       LGT SNOW  12   5  73 NW8       30.20R
WATERTON GATE  N/A       21  10  62 NE2        N/A
CARDSTON       N/A       16  12  84 NW10       N/A   WCI   4
MILK RIVER     N/A       14  10  84 N15        N/A   WCI  -1
$$

REGIONAL REPORTS...SASKATCHEWAN
CITY           SKY/WX    TMP DP  RH WIND       PRES   REMARKS
SWIFT CURRENT  SUNNY     10   0  64 N9        30.04R WCI  -3
MOOSE JAW      CLOUDY    10  -2  58 CALM      30.13F
REGINA         CLOUDY     1  -8  65 SE10      30.14F WCI -15
VAL MARIE      N/A       16   1  51 SW2        N/A
ASSINIBOIA     N/A       10  -6  48 SE5        N/A   WCI   1
CORONACH       N/A       18   3  52 SE9        N/A   WCI   7

$$



USA.gov is the U.S. government's official web portal to all federal, state and local government web resources and services.